Keystone Airpark, Keystone He, FL

5:24 PM EST on December 17, 2017 (GMT -0500)
Keystone Airpark, Keystone He

Weather History for K42J - May, 2014

Change the Weather History Date:

Saturday, May 3, 2014

  Actual Average (KGNV) Record (KGNV)
Temperature  
Mean Temperature 60 °F -  
Max Temperature 64 °F 84 °F 95 °F (2002)
Min Temperature 55 °F 60 °F 45 °F (1925)
Degree Days  
Heating Degree Days 6    
Growing Degree Days 10 (Base 50)    
Moisture  
Dew Point 60 °F    
Average Humidity 94    
Maximum Humidity 100    
Minimum Humidity 77    
Precipitation  
Precipitation 0.00 in - - ()
Sea Level Pressure  
Sea Level Pressure 30.00 in    
Wind  
Wind Speed 4 mph (North)    
Max Wind Speed 10 mph    
Max Gust Speed -    
Visibility 6 miles    
Events      
Averages and records for this station are not official NWS values.
T = Trace of Precipitation, MM = Missing Value Source: NWS Daily Summary

Daily Weather History Graph

Daily Weather History Graph

Search for Another Location

Airport or City:

Trip Planner

Search our weather history database for the weather conditions in past years. The results will help you decide how hot, cold, wet, or windy it might be!

Date:

Astronomy

May. 03, 2014 Rise Set
Actual Time 6:43 AM EDT 8:06 PM EDT
Civil Twilight 6:18 AM EDT 8:32 PM EDT
Nautical Twilight 5:48 AM EDT 9:02 PM EDT
Astronomical Twilight 5:16 AM EDT 9:34 PM EDT
Moon 10:16 AM EDT (5/3) No Moon Set
Length of Visible Light 14h 13m
Length of Day
13h 22m
Waxing Crescent, 19% of the Moon is Illuminated
May 3
Waxing Crescent
May 6
First Quarter
May 14
Full
May 21
Last Quarter
May 28
New

Hourly Weather History & Observations

Time (EDT) Temp. Dew Point Humidity Pressure Visibility Wind Dir Wind Speed Gust Speed Precip Events Conditions
12:15 AM 62.6 °F 62.6 °F 100% 29.95 in 1.0 mi NNW 5.8 mph - N/A   Overcast
12:35 AM 62.6 °F 62.6 °F 100% 29.95 in 0.5 mi North 4.6 mph - N/A   Overcast
12:55 AM 62.6 °F 62.6 °F 100% 29.95 in 0.5 mi North 4.6 mph - N/A   Overcast
1:15 AM 62.6 °F 62.6 °F 100% 29.95 in 0.8 mi North 3.5 mph - N/A   Overcast
1:35 AM 62.6 °F 62.6 °F 100% 29.94 in 0.8 mi North 4.6 mph - N/A   Overcast
1:55 AM 62.6 °F 62.6 °F 100% 29.94 in 0.8 mi Calm Calm - N/A   Overcast
2:15 AM 62.6 °F 62.6 °F 100% 29.93 in 1.0 mi NNE 3.5 mph - N/A   Overcast
2:35 AM 62.6 °F 62.6 °F 100% 29.93 in 0.8 mi Calm Calm - N/A   Overcast
2:55 AM 62.6 °F 62.6 °F 100% 29.93 in 1.0 mi North 3.5 mph - N/A   Overcast
3:15 AM 62.6 °F 62.6 °F 100% 29.94 in 0.8 mi NNW 3.5 mph - N/A   Overcast
3:35 AM 62.6 °F 62.6 °F 100% 29.93 in 0.5 mi North 5.8 mph - N/A   Overcast
3:55 AM 62.6 °F 62.6 °F 100% 29.95 in 0.8 mi NNW 4.6 mph - N/A   Overcast
4:15 AM 62.6 °F 62.6 °F 100% 29.96 in 0.8 mi NNW 4.6 mph - N/A   Overcast
4:35 AM 62.6 °F 62.6 °F 100% 29.95 in 1.2 mi North 6.9 mph - N/A   Overcast
4:55 AM 62.6 °F 62.6 °F 100% 29.93 in 2.5 mi NE 6.9 mph - N/A   Overcast
5:15 AM 62.6 °F 62.6 °F 100% 29.92 in 3.0 mi NNE 8.1 mph - N/A   Overcast
5:35 AM 62.6 °F 62.6 °F 100% 29.92 in 6.0 mi North 5.8 mph - N/A   Overcast
5:55 AM 60.8 °F 60.8 °F 100% 29.93 in 8.0 mi NNW 3.5 mph - N/A   Overcast
6:15 AM 60.8 °F 60.8 °F 100% 29.94 in 9.0 mi Calm Calm - N/A   Overcast
6:35 AM 60.8 °F 60.8 °F 100% 29.96 in 9.0 mi North 3.5 mph - N/A   Overcast
6:55 AM 60.8 °F 60.8 °F 100% 29.96 in 9.0 mi Calm Calm - N/A   Overcast
7:15 AM 62.6 °F 62.6 °F 100% 29.96 in 1.8 mi Calm Calm - N/A   Overcast
7:35 AM 62.6 °F 62.6 °F 100% 29.97 in 1.8 mi Calm Calm - N/A   Overcast
7:55 AM 62.6 °F 62.6 °F 100% 29.99 in 4.0 mi Calm Calm - N/A   Overcast
8:15 AM 62.6 °F 62.6 °F 100% 29.99 in 2.0 mi North 3.5 mph - N/A   Overcast
8:35 AM 62.6 °F 62.6 °F 100% 29.99 in 6.0 mi Calm Calm - N/A   Overcast
8:55 AM 62.6 °F 62.6 °F 100% 29.99 in 9.0 mi Calm Calm - N/A   Overcast
9:15 AM 62.6 °F 62.6 °F 100% 30.01 in 10.0 mi North 4.6 mph - N/A   Overcast
9:35 AM 62.6 °F 62.6 °F 100% 30.02 in 10.0 mi NW 3.5 mph - N/A   Overcast
9:55 AM 62.6 °F 62.6 °F 100% 30.02 in 10.0 mi Calm Calm - N/A   Overcast
10:15 AM 62.6 °F 60.8 °F 94% 30.02 in 10.0 mi North 3.5 mph - N/A   Overcast
10:35 AM 62.6 °F 60.8 °F 94% 30.03 in 6.0 mi NW 8.1 mph - N/A   Overcast
10:55 AM 62.6 °F 60.8 °F 94% 30.03 in 7.0 mi NNW 5.8 mph - N/A   Overcast
11:15 AM 62.6 °F 60.8 °F 94% 30.02 in 0.8 mi North 5.8 mph - N/A   Overcast
11:35 AM 62.6 °F 60.8 °F 94% 30.03 in 10.0 mi NNW 10.4 mph - N/A   Overcast
11:55 AM 60.8 °F 57.2 °F 88% 30.05 in 10.0 mi NNW 8.1 mph - N/A   Overcast
12:15 PM 59.0 °F 57.2 °F 94% 30.04 in 3.0 mi North 8.1 mph - N/A   Overcast
12:35 PM 59.0 °F 57.2 °F 94% 30.04 in 1.0 mi North 6.9 mph - N/A   Overcast
12:55 PM 60.8 °F 59.0 °F 94% 30.05 in 3.0 mi North 3.5 mph - N/A   Overcast
1:15 PM 60.8 °F 59.0 °F 94% 30.05 in 5.0 mi North 4.6 mph - N/A   Overcast
1:35 PM 60.8 °F 59.0 °F 94% 30.04 in 5.0 mi NNE 3.5 mph - N/A   Overcast
1:55 PM 60.8 °F 60.8 °F 100% 30.03 in 10.0 mi NNE 4.6 mph - N/A   Mostly Cloudy
2:15 PM 62.6 °F 59.0 °F 88% 30.02 in 10.0 mi North 8.1 mph - N/A   Overcast
2:35 PM 62.6 °F 57.2 °F 82% 30.02 in 10.0 mi NNE 9.2 mph - N/A   Overcast
2:55 PM 62.6 °F 57.2 °F 82% 30.02 in 10.0 mi NNE 6.9 mph - N/A   Overcast
3:15 PM 60.8 °F 57.2 °F 88% 30.01 in 3.0 mi NNE 5.8 mph - N/A   Overcast
3:35 PM 62.6 °F 59.0 °F 88% 30.00 in 10.0 mi NNE 4.6 mph - N/A   Mostly Cloudy
4:15 PM 62.6 °F 59.0 °F 88% 30.00 in 10.0 mi North 3.5 mph - N/A   Mostly Cloudy
4:35 PM 64.4 °F 57.2 °F 77% 30.00 in 10.0 mi NNE 4.6 mph - N/A   Mostly Cloudy
4:55 PM 64.4 °F 57.2 °F 77% 30.00 in 10.0 mi East 4.6 mph - N/A   Scattered Clouds
5:15 PM 64.4 °F 57.2 °F 77% 30.00 in 10.0 mi Calm Calm - N/A   Scattered Clouds
5:35 PM 64.4 °F 57.2 °F 77% 30.00 in 10.0 mi East 3.5 mph - N/A   Partly Cloudy
5:55 PM 64.4 °F 57.2 °F 77% 30.00 in 10.0 mi Calm Calm - N/A   Partly Cloudy
6:15 PM 64.4 °F 57.2 °F 77% 30.00 in 10.0 mi Calm Calm - N/A   Partly Cloudy
6:35 PM 64.4 °F 57.2 °F 77% 30.00 in 10.0 mi Calm Calm - N/A   Clear
6:55 PM 64.4 °F 57.2 °F 77% 29.99 in 10.0 mi Calm Calm - N/A   Partly Cloudy
7:15 PM 64.4 °F 57.2 °F 77% 30.00 in 10.0 mi Calm Calm - N/A   Partly Cloudy
7:35 PM 64.4 °F 57.2 °F 77% 30.00 in 10.0 mi Calm Calm - N/A   Clear
7:55 PM 64.4 °F 60.8 °F 88% 30.01 in 10.0 mi Calm Calm - N/A   Clear
8:15 PM 62.6 °F 60.8 °F 94% 30.02 in 10.0 mi Calm Calm - N/A   Clear
8:35 PM 62.6 °F 60.8 °F 94% 30.02 in 10.0 mi Calm Calm - N/A   Clear
8:55 PM 60.8 °F 60.8 °F 100% 30.03 in 10.0 mi Calm Calm - N/A   Clear
9:15 PM 60.8 °F 60.8 °F 100% 30.03 in 10.0 mi Calm Calm - N/A   Clear
9:35 PM 60.8 °F 60.8 °F 100% 30.04 in 10.0 mi Calm Calm - N/A   Clear
9:55 PM 59.0 °F 59.0 °F 100% 30.04 in 10.0 mi Calm Calm - N/A   Clear
10:15 PM 59.0 °F 59.0 °F 100% 30.05 in 10.0 mi Calm Calm - N/A   Clear
10:35 PM 57.2 °F 57.2 °F 100% 30.06 in 10.0 mi Calm Calm - N/A   Clear
10:55 PM 57.2 °F 57.2 °F 100% 30.06 in 9.0 mi Calm Calm - N/A   Clear
11:15 PM 57.2 °F 57.2 °F 100% 30.06 in 7.0 mi Calm Calm - N/A   Clear
11:35 PM 55.4 °F 55.4 °F 100% 30.06 in 7.0 mi Calm Calm - N/A   Clear
11:55 PM 57.2 °F 57.2 °F 100% 30.07 in 10.0 mi Calm Calm - N/A   Clear